Weather Roundup
Issued by NWS

Home | Current Version | Previous Version | Text Only | Print | Product List | Glossary On
Versions: 1 2 3 4 5 6 7 8 9 10 11 12 13 14 15 16 17 18 19 20 21 22 23 24 25 26 27 28 29 30 31 32 33 34 35 36 37 38 39 40 41 42 43 44 45 46 47 48 49 50
000
NZUS93 KARX 272059
HRRWXR

CURRENT HOURLY OBSERVATIONS ACROSS
MUCH OF THE UPPER MISSISSIPPI VALLEY
NATIONAL WEATHER SERVICE LA CROSSE WI
300 PM CST THU NOV 27 2014


...SOUTHEAST MINNESOTA...


CITY           SKY/WX    TMP DP  RH WIND       PRES   REMARKS
ROCHESTER      SUNNY      4  -4  69 W6        30.41S WCI  -7
ROCHESTER/MAYO FAIR       8  -4  60 W7        30.42F WCI  -4
WINONA         SUNNY     14   1  57 W5        30.46S WCI   6
AUSTIN         SUNNY      3  -6  66 NW3       30.41F
ALBERT LEA     SUNNY      1  -6  71 N2        30.41F
DODGE CENTER   SUNNY      3  -6  66 N3        30.39F
PRESTON        SUNNY      6  -3  66 NW6       30.40F WCI  -4
OWATONNA       SUNNY      0  -8  71 SW3       30.42F
FARIBAULT      SUNNY      7  -4  61 CALM      30.43F
$$

...ELSEWHERE IN MINNESOTA...


CITY           SKY/WX    TMP DP  RH WIND       PRES   REMARKS
MINNEAPOLIS    MOSUNNY    9  -5  53 CALM      30.44F
INTNL FALLS    CLEAR      3  -7  63 SW6       30.33F WCI  -8
DULUTH         SUNNY      8  -7  50 W7        30.32F WCI  -3
RED WING         N/A     10  -2  56 W3        30.45R
REDWOOD FALLS  SUNNY      0  -6  76 S8        30.41F WCI -14
MANKATO        SUNNY      1  -8  66 SE5       30.43F WCI  -8
WORTHINGTON    CLOUDY     7  -6  56 SE8       30.33F WCI  -6
FAIRMONT       SUNNY      0  -8  71 SE5       30.40F WCI -10
$$

...SOUTHWEST WISCONSIN...


CITY           SKY/WX    TMP DP  RH WIND       PRES   REMARKS
LA CROSSE      SUNNY     14   0  53 NW8       30.45R WCI   3
PRAIRIE DU CHI SUNNY     17  -2  43 NW8       30.44R WCI   6
BOSCOBEL       SUNNY     18  -2  41 NW8       30.43R WCI   8
LONE ROCK      NOT AVBL
PLATTEVILLE    SUNNY     18   4  55 CALM      30.39R
FORT MC COY    SUNNY     14   0  53 W7        30.42S WCI   4
VIROQUA        FAIR      12  -1  56 W7        30.37S WCI   1
WIS DELLS      NOT AVBL
$$

...ELSEWHERE IN WISCONSIN...


CITY           SKY/WX    TMP DP  RH WIND       PRES   REMARKS
MILWAUKEE      FLURRIES  22  11  62 NW8       30.35R WCI  12
MADISON        MOSUNNY   17   7  64 NW7       30.37R WCI   8
GREEN BAY      SUNNY     18   4  54 NW12      30.35S WCI   5
EAU CLAIRE     SUNNY      9  -4  55 W7        30.42S WCI  -2
BLACK RVR FLS  FAIR      13  -1  52 NW7       30.41S WCI   3
MEDFORD        SUNNY     11   0  59 W6        30.32S WCI   2
WAUSAU         SUNNY     13   2  61 W7        30.32S WCI   3
WIS RAPIDS     SUNNY     13   0  56 NW9       30.38S WCI   1
MARSHFIELD     SUNNY     10  -1  61 NW10      30.35S WCI  -4
RICE LAKE      SUNNY      9  -5  54 W6        30.42S WCI  -1
$$

...NORTHEAST IOWA...


CITY           SKY/WX    TMP DP  RH WIND       PRES   REMARKS
DECORAH        SUNNY     10  -2  56 N7        30.40R WCI   0
MASON CITY     SUNNY      4  -3  73 W7        30.44S WCI  -8
CHARLES CITY   SUNNY      7  -4  61 NW7       30.44F WCI  -5
OELWEIN        SUNNY     10   0  61 NW9       30.43S WCI  -2
$$

...ELSEWHERE IN IOWA...


CITY           SKY/WX    TMP DP  RH WIND       PRES   REMARKS
DES MOINES     PTSUNNY   13  -2  51 CALM      30.45F
IOWA CITY      SUNNY     15   4  61 NW10      30.48S WCI   2
FORT DODGE     PTSUNNY    3  -6  66 NE7       30.43F WCI  -9
$$

...NORTHERN ILLINOIS...


CITY           SKY/WX    TMP DP  RH WIND       PRES   REMARKS
CHICAGO-OHARE  PTSUNNY   23  14  68 NW13      30.35R WCI  11
CHICAGO-MIDWAY PTSUNNY   26  15  63 NW13      30.36R WCI  15
MOLINE         SUNNY     20   4  50 NW15      30.44R WCI   6
ROCKFORD       FLURRIES  22  11  62 NW12      30.40R WCI  10
PEORIA         PTSUNNY   24  13  62 W10       30.43R WCI  14
$$

NOTE: "FAIR" INDICATES FEW OR NO CLOUDS BELOW 12,000 FEET WITH NO
SIGNIFICANT WEATHER AND/OR OBSTRUCTIONS TO VISIBILITY. WIND
SPEEDS ARE IN MILES-PER-HOUR.



USA.gov is the U.S. government's official web portal to all federal, state and local government web resources and services.